Regional Weather Roundup
Issued by NWS Albany, NY

Home | Current Version | Previous Version | Text Only | Print | Product List | Glossary On
Versions: 1 2 3 4 5 6 7 8 9 10 11 12 13 14 15 16 17 18 19 20 21 22 23 24 25 26 27 28 29 30 31 32 33 34 35 36 37 38 39 40 41 42 43 44 45 46 47 48 49 50
000
ASUS41 KALY 070510
RWRALY

NEW YORK STATE HOURLY WEATHER ROUNDUP
NATIONAL WEATHER SERVICE ALBANY NY
1200 AM EST SUN FEB 07 2016

NOTE: "FAIR" INDICATES FEW OR NO CLOUDS BELOW 12,000 FEET WITH NO
SIGNIFICANT WEATHER AND/OR NO OBSTRUCTIONS TO VISIBILITY.

NYZ032-033-038>043-046>054-057>066-NYZ062>081-070600-
EAST


CITY           SKY/WX    TMP DP  RH WIND       PRES   REMARKS
ALBANY         MOCLDY    34  19  54 S7        30.18F WCI  28
GLENS FALLS    CLOUDY    34  20  56 S6        30.15F WCI  29
POUGHKEEPSIE   PTCLDY    26  18  71 CALM      30.24S
NEWBURGH       PTCLDY    32  21  64 CALM      30.24S
MONTGOMERY     CLEAR     23  20  88 CALM      30.22F
WHITE PLAINS   CLEAR     34  20  56 W3        30.23F
ISLIP          PTCLDY    30  23  75 CALM      30.25F
NEW YORK CITY  PTCLDY    38  23  55 SW7       30.26F WCI  33
CENTRAL PARK   PTCLDY    37  21  52 SW10G20   30.28F WCI  30
$$

NYZ005>009-017-018-044>046-055-056-070600-
CENTRAL


CITY           SKY/WX    TMP DP  RH WIND       PRES   REMARKS
FULTON         CLOUDY    34  23  64 S5        30.14F WCI  30
SYRACUSE       CLOUDY    30  24  78 CALM      30.15F
ROME           CLOUDY    29  23  78 CALM      30.17F
ELMIRA         CLEAR     22  18  85 CALM      30.16F
BINGHAMTON     CLEAR     29  17  61 S6        30.12F WCI  23
MONTICELLO     CLEAR     27  19  74 S3        30.18F
$$

NYZ026>034-041>043-070600-
NORTH


CITY           SKY/WX    TMP DP  RH WIND       PRES   REMARKS
WATERTOWN      CLOUDY    35  26  69 SW9       30.12F WCI  28
FORT DRUM      NOT AVBL
MASSENA        CLOUDY    34  25  69 SW17      30.07F WCI  23
SARANAC LAKE   CLOUDY    27  20  75 SW8       30.02F WCI  19
PLATTSBURGH    CLOUDY    35  21  56 SW7       30.09S WCI  29
$$

NYZ001>004-010>016-019>021-070600-
WEST


CITY           SKY/WX    TMP DP  RH WIND       PRES   REMARKS
NIAGARA FALLS  CLOUDY    34  25  69 SW10      30.13F WCI  26
BUFFALO        CLOUDY    32  25  75 SW8       30.14F WCI  25
DUNKIRK        CLOUDY    30  21  69 SW7       30.16F WCI  23
JAMESTOWN      PTCLDY    28  16  59 SW3       30.11S
WELLSVILLE     CLEAR     30  15  53 SW8       30.11F WCI  22
ROCHESTER      CLOUDY    31  25  78 W7        30.15S WCI  24
PENN YAN       CLOUDY    32  23  69 SW9       30.14F WCI  24
$$

             KEY
       WCI = WIND CHILL INDEX
       VSB = VISIBILITY
       HX  = HEAT INDEX
$$



USA.gov is the U.S. government's official web portal to all federal, state and local government web resources and services.